Vorticity
-1 7 -5 6 12 6 25 10 5 7 7 10 16 16 16 15 11 6 7 5 5 2 3 6 6 5 4 3 2 3 3 5 4 4 4 4 7 8 9 10 8 7 8 8 9 8 8 9 10 8 5 8 3 4
-5 2 5 20 3 30 13 5 6 4 0 8 17 15 14 13 12 12 8 8 6 3 3 6 7 6 5 3 3 4 4 4 3 4 5 3 5 6 7 9 8 8 8 7 8 9 11 10 7 8 5 5 6 9
18 14 19 14 10 18 2 6 5 7 6 5 10 15 16 11 11 10 9 7 9 5 6 5 6 5 4 3 3 3 5 4 4 4 4 5 7 8 7 8 9 9 8 10 11 14 8 8 6 9 8 7 10 -0
3 13 9 -7 33 5 3 5 4 4 6 7 9 12 9 13 12 12 11 11 9 11 7 8 6 6 7 6 6 6 4 8 6 8 9 9 9 9 10 10 12 13 14 13 11 12 6 9 9 9 11 10 1 8
-5 -11 5 10 33 6 5 5 4 4 3 4 8 10 12 13 13 12 13 12 12 9 12 10 10 9 8 7 8 11 13 14 14 16 17 14 15 14 12 12 19 16 14 10 10 9 8 11 10 10 7 5 9 10
27 23 18 18 24 7 4 4 4 3 2 5 5 2 6 8 10 11 12 13 15 17 14 15 14 16 15 16 15 14 13 13 12 11 11 13 13 11 10 12 17 17 12 8 8 10 11 11 8 7 8 9 11 8
15 21 25 23 6 4 4 5 6 3 4 5 6 6 6 5 3 2 3 4 4 6 7 10 10 12 12 13 12 11 10 10 9 9 10 10 8 5 6 11 14 8 7 8 10 9 9 7 6 10 11 9 9 11
17 24 17 0 4 9 4 6 7 7 5 6 5 5 5 4 5 6 6 6 8 9 8 6 6 6 7 8 8 8 9 8 6 7 10 12 10 10 11 8 7 7 7 8 5 6 6 10 14 10 6 6 6 7
-1 5 17 31 9 -8 1 13 15 6 3 6 4 6 6 3 4 4 4 4 6 6 8 8 6 9 10 10 11 10 9 9 6 9 10 6 5 9 9 6 7 7 7 8 11 13 11 12 16 9 0 -2 2 11
14 11 13 11 19 32 31 12 -10 -15 -0 10 10 13 3 2 5 6 7 8 7 8 5 8 5 10 9 8 7 8 7 5 8 7 6 6 8 14 13 10 10 13 13 11 9 7 6 8 10 13 8 11 10 7
-4 6 11 14 8 2 16 23 20 19 19 27 11 -2 2 13 9 11 10 8 7 7 9 10 7 6 8 8 7 7 9 11 12 11 9 10 12 9 9 12 11 12 15 13 6 4 9 10 12 12 12 9 5 9
1 2 2 6 5 4 0 10 8 15 28 17 9 21 13 4 3 1 -0 6 9 9 9 9 10 7 6 6 6 8 11 10 8 -0 -1 3 6 7 5 4 4 6 2 -1 -0 6 11 11 4 9 8 7 11 15
10 -6 1 2 8 1 6 7 5 8 10 9 11 10 8 12 12 7 7 8 5 8 8 16 11 10 12 10 9 9 5 4 6 9 9 7 6 8 4 2 1 2 3 4 10 14 10 4 6 11 17 18 17 5
22 1 12 -12 5 5 2 1 -1 4 16 12 4 12 16 11 10 4 6 9 11 12 9 3 3 4 9 9 5 5 5 4 8 5 6 5 6 4 2 6 3 8 16 17 15 12 8 13 17 11 9 16 11 18
15 22 -0 15 25 10 0 -5 5 7 10 16 7 3 5 5 5 8 6 4 4 6 5 3 2 2 2 3 1 2 4 3 2 4 7 8 9 12 16 19 20 16 10 10 15 21 19 18 17 13 9 9 1 -9
11 8 18 25 -10 5 10 11 2 6 8 6 11 10 7 10 8 5 3 3 3 3 4 6 7 8 5 5 6 5 5 7 16 21 23 25 22 17 11 12 17 21 24 21 22 17 9 1 4 6 -4 3 11 16
19 14 16 13 17 15 6 9 28 15 1 12 7 12 5 10 11 11 11 12 10 11 11 8 6 5 9 10 18 18 15 18 15 9 6 14 19 17 16 17 17 11 8 0 -2 3 4 6 10 19 18 13 10 11
16 21 22 25 28 30 29 29 30 22 24 18 9 14 17 15 15 8 9 11 15 12 11 17 11 9 8 8 10 14 13 11 18 23 15 11 14 16 12 12 9 9 8 12 22 22 15 16 10 9 12 14 16 15
8 9 10 11 12 11 11 15 20 16 18 23 25 27 27 26 30 29 30 33 31 29 29 30 30 29 30 32 30 27 20 11 10 10 9 9 11 10 16 25 27 7 7 6 2 10 8 9 12 14 13 12 12 12
5 6 5 4 4 5 4 4 2 3 3 3 4 4 4 4 5 4 4 4 4 3 2 4 8 8 10 10 8 10 19 28 30 23 17 13 9 8 7 10 7 10 0 0 16 14 13 12 10 11 13 13 10 7
8 8 8 8 7 6 5 5 4 3 3 2 1 1 2 2 3 4 3 4 4 3 6 8 8 11 11 12 18 23 21 14 9 8 8 8 5 2 5 7 8 2 9 17 18 15 12 14 15 10 8 11 19 18
8 8 8 9 8 8 7 7 8 7 7 6 5 6 6 7 8 7 7 6 8 10 13 13 11 13 20 29 20 12 7 7 5 7 3 7 7 3 8 8 13 14 14 12 10 10 11 8 8 11 12 9 7 8
3 4 5 6 6 5 7 5 6 6 6 6 5 5 6 7 8 10 10 15 17 17 17 20 28 28 18 9 8 9 7 5 3 10 4 1 -2 4 9 7 10 10 10 11 12 13 13 12 10 7 9 11 11 12
6 6 5 4 4 2 2 3 4 5 5 5 6 10 14 16 15 12 14 21 26 20 13 8 2 6 13 13 11 7 2 3 6 3 2 -1 1 -2 2 6 8 10 10 11 11 10 7 6 8 11 16 16 14 12
6 7 9 10 9 11 10 10 10 12 12 13 15 17 21 20 17 16 14 18 13 15 18 15 12 11 9 3 5 5 5 5 7 5 4 2 3 3 6 13 15 12 10 11 14 16 17 20 19 17 14 13 13 15
34 37 33 29 24 23 22 27 33 34 33 29 26 24 23 19 18 9 17 14 9 6 7 7 6 4 7 10 9 7 7 0 -2 0 0 3 5 12 14 10 13 18 16 13 9 8 8 12 14 16 17 15 16 18
35 40 45 67 71 59 53 46 32 30 33 39 28 24 22 13 10 12 4 8 10 4 -2 2 13 16 12 6 3 1 0 -1 1 4 6 11 12 11 17 18 15 12 12 13 13 13 14 14 15 17 20 20 16 14
3 3 2 9 14 11 8 8 17 16 7 11 16 15 9 10 2 2 4 4 1 4 13 22 17 2 2 1 -1 0 3 4 8 12 11 14 18 16 13 9 8 12 17 20 21 22 20 20 20 15 14 13 15 21
6 15 26 18 3 3 11 10 4 11 14 14 15 18 12 15 12 2 9 15 16 13 5 2 -2 -0 3 5 5 7 11 11 15 19 17 13 8 7 10 14 18 18 18 17 16 18 18 15 12 12 14 19 14 16
9 9 7 8 10 9 4 7 6 12 14 11 11 14 12 8 5 4 3 2 3 3 5 6 5 6 8 10 13 19 21 17 13 9 7 9 12 15 16 15 17 17 18 22 19 13 11 13 13 15 18 14 15 13
6 4 5 5 1 5 7 5 4 3 4 4 3 5 5 5 5 6 6 6 6 7 10 13 17 19 18 15 12 9 9 11 14 16 15 14 15 17 21 22 25 27 19 11 15 14 13 15 18 15 12 16 13 17
7 6 7 7 8 9 7 6 6 6 4 5 4 6 7 10 12 14 18 18 17 16 13 10 9 9 12 16 18 18 16 14 13 14 16 21 21 23 27 26 16 9 12 11 10 17 20 17 14 12 12 16 12 20
9 8 8 8 7 7 9 7 9 10 13 18 23 23 19 14 12 11 10 10 13 15 16 18 21 19 15 13 14 14 14 15 18 22 19 20 24 22 16 9 6 9 11 15 21 20 14 10 10 10 10 13 9 19
Height
5517 5528 5538 5550 5560 5569 5577 5588 5599 5606 5614 5621 5628 5636 5645 5654 5663 5670 5677 5685 5692 5698 5703 5709 5713 5717 5721 5723 5725 5728 5730 5731 5731 5732 5733 5733 5732 5733 5734 5734 5733 5733 5730 5730 5727 5725 5724 5725 5721 5717 5714 5710 5705 5700
5521 5531 5542 5552 5561 5569 5579 5590 5598 5606 5614 5621 5628 5635 5643 5651 5659 5666 5673 5680 5687 5693 5699 5703 5707 5712 5715 5717 5719 5721 5724 5724 5724 5725 5725 5725 5724 5724 5725 5724 5724 5723 5721 5719 5719 5717 5716 5711 5708 5706 5703 5698 5693 5690
5527 5535 5543 5553 5562 5571 5583 5591 5598 5606 5614 5622 5629 5635 5642 5648 5655 5663 5669 5675 5681 5687 5692 5697 5701 5705 5708 5710 5712 5714 5715 5716 5716 5716 5717 5717 5716 5716 5716 5715 5714 5713 5709 5709 5708 5709 5704 5699 5697 5695 5690 5687 5683 5679
5527 5535 5546 5555 5564 5573 5584 5592 5599 5606 5614 5621 5628 5635 5640 5646 5653 5660 5665 5670 5676 5681 5686 5690 5693 5697 5700 5702 5703 5704 5706 5706 5707 5707 5707 5707 5707 5706 5706 5705 5702 5703 5700 5700 5696 5695 5690 5689 5686 5682 5679 5675 5672 5667
5531 5538 5547 5556 5564 5574 5584 5592 5599 5607 5614 5621 5628 5634 5639 5645 5650 5656 5661 5666 5670 5676 5680 5683 5686 5689 5692 5693 5695 5695 5696 5697 5697 5697 5698 5698 5696 5696 5695 5693 5694 5694 5690 5686 5684 5682 5679 5678 5673 5669 5665 5661 5657 5653
5529 5537 5545 5554 5564 5576 5584 5592 5599 5607 5614 5620 5626 5632 5637 5642 5647 5652 5657 5662 5665 5669 5673 5676 5678 5680 5683 5684 5685 5687 5688 5688 5689 5689 5689 5688 5689 5687 5685 5685 5688 5685 5679 5675 5673 5671 5668 5665 5662 5658 5654 5649 5645 5640
5530 5538 5546 5555 5565 5575 5584 5591 5598 5605 5612 5618 5624 5629 5634 5639 5644 5649 5655 5659 5661 5663 5666 5669 5671 5673 5675 5677 5678 5678 5678 5680 5680 5680 5679 5679 5679 5677 5675 5676 5678 5672 5670 5667 5665 5661 5658 5655 5651 5647 5643 5638 5634 5628
5535 5542 5549 5557 5566 5575 5583 5590 5597 5603 5609 5615 5621 5626 5631 5635 5640 5644 5648 5651 5655 5657 5660 5661 5665 5668 5668 5668 5668 5669 5670 5670 5671 5670 5670 5669 5668 5666 5666 5670 5664 5662 5659 5657 5653 5650 5646 5642 5639 5635 5631 5626 5621 5615
5539 5546 5553 5559 5566 5574 5581 5588 5594 5600 5606 5611 5616 5621 5626 5630 5634 5638 5642 5645 5648 5651 5652 5654 5657 5660 5661 5660 5660 5660 5660 5660 5661 5660 5660 5659 5658 5657 5657 5655 5652 5649 5647 5644 5641 5637 5633 5630 5626 5622 5618 5612 5607 5600
5541 5548 5554 5560 5566 5573 5579 5585 5591 5596 5601 5606 5611 5615 5620 5624 5629 5632 5635 5637 5640 5642 5644 5647 5651 5651 5653 5653 5653 5653 5651 5650 5649 5650 5648 5649 5648 5648 5644 5642 5640 5637 5634 5630 5627 5624 5621 5617 5612 5608 5602 5598 5593 5587
5541 5547 5552 5557 5562 5567 5575 5580 5586 5592 5596 5600 5604 5609 5614 5618 5621 5624 5626 5629 5632 5634 5637 5639 5641 5643 5644 5644 5643 5642 5640 5640 5639 5640 5639 5638 5638 5637 5634 5632 5629 5625 5622 5618 5616 5612 5608 5603 5598 5593 5589 5583 5577 5572
5540 5546 5551 5556 5562 5567 5572 5577 5582 5587 5591 5595 5599 5603 5607 5611 5614 5616 5617 5620 5622 5625 5628 5633 5634 5634 5633 5633 5631 5631 5630 5630 5629 5629 5628 5626 5627 5624 5622 5619 5616 5613 5610 5606 5602 5598 5594 5588 5584 5579 5574 5568 5562 5555
5538 5543 5549 5554 5559 5565 5570 5574 5578 5582 5586 5590 5593 5597 5601 5604 5605 5607 5608 5612 5617 5619 5621 5622 5622 5622 5621 5622 5621 5620 5619 5619 5619 5617 5615 5614 5613 5611 5608 5605 5603 5599 5595 5590 5586 5582 5577 5573 5568 5563 5558 5553 5547 5541
5536 5541 5546 5550 5555 5560 5565 5569 5574 5577 5581 5585 5588 5591 5593 5595 5597 5599 5602 5606 5609 5610 5610 5611 5612 5612 5612 5611 5610 5609 5608 5607 5605 5605 5604 5603 5600 5596 5595 5591 5588 5583 5578 5573 5570 5566 5562 5558 5554 5549 5544 5538 5532 5526
5533 5538 5542 5545 5550 5554 5559 5563 5567 5571 5574 5578 5581 5584 5586 5589 5591 5594 5595 5597 5598 5600 5601 5602 5601 5602 5601 5600 5600 5598 5596 5593 5593 5592 5591 5588 5584 5579 5577 5574 5570 5566 5561 5557 5555 5551 5546 5542 5538 5532 5527 5522 5517 5510
5527 5532 5537 5541 5546 5549 5553 5556 5560 5564 5566 5570 5573 5576 5579 5582 5584 5585 5587 5588 5589 5589 5590 5590 5590 5589 5589 5587 5587 5584 5583 5581 5580 5578 5575 5572 5568 5564 5561 5558 5554 5551 5546 5541 5537 5534 5531 5527 5522 5517 5510 5504 5498 5491
5524 5527 5531 5536 5539 5543 5546 5549 5552 5555 5557 5561 5564 5566 5569 5571 5573 5575 5576 5578 5578 5578 5578 5578 5578 5577 5576 5574 5573 5572 5570 5568 5565 5564 5562 5559 5556 5552 5549 5545 5541 5538 5535 5530 5525 5520 5514 5509 5504 5499 5494 5488 5482 5475
5523 5526 5527 5530 5533 5536 5538 5541 5544 5547 5549 5551 5554 5556 5558 5559 5561 5562 5563 5564 5566 5566 5565 5566 5565 5564 5562 5561 5560 5558 5556 5554 5552 5551 5550 5547 5543 5540 5536 5532 5528 5524 5519 5514 5508 5503 5498 5494 5489 5483 5478 5473 5467 5459
5521 5523 5525 5528 5530 5532 5535 5537 5539 5541 5543 5544 5546 5548 5549 5550 5551 5552 5553 5554 5554 5555 5555 5554 5552 5552 5551 5549 5548 5545 5542 5540 5539 5537 5534 5531 5528 5526 5522 5519 5515 5510 5506 5501 5496 5490 5484 5478 5473 5467 5461 5455 5450 5444
5519 5521 5523 5525 5527 5529 5531 5533 5535 5537 5538 5540 5541 5542 5543 5544 5545 5546 5546 5547 5546 5546 5546 5545 5543 5542 5541 5539 5536 5534 5531 5529 5527 5524 5521 5519 5517 5514 5511 5507 5503 5499 5494 5488 5481 5476 5470 5464 5457 5451 5444 5438 5432 5428
5518 5519 5521 5522 5524 5525 5527 5528 5530 5532 5532 5534 5534 5536 5536 5536 5536 5536 5537 5537 5536 5536 5535 5534 5532 5530 5528 5527 5524 5522 5520 5518 5515 5513 5510 5509 5507 5504 5500 5496 5490 5485 5479 5473 5467 5460 5453 5446 5441 5435 5429 5423 5416 5410
5511 5512 5514 5515 5517 5518 5520 5521 5522 5523 5524 5524 5525 5526 5526 5527 5526 5526 5526 5527 5526 5525 5523 5521 5520 5518 5516 5514 5512 5511 5509 5508 5506 5504 5501 5498 5495 5491 5486 5481 5475 5468 5461 5456 5450 5444 5437 5431 5424 5418 5411 5405 5399 5393
5503 5505 5506 5507 5508 5509 5511 5511 5511 5512 5512 5514 5514 5514 5514 5514 5514 5513 5514 5514 5513 5510 5509 5508 5507 5506 5505 5504 5503 5501 5500 5498 5497 5494 5490 5486 5482 5477 5472 5466 5459 5453 5447 5440 5433 5427 5420 5413 5407 5400 5394 5388 5381 5376
5492 5493 5494 5496 5497 5497 5498 5498 5499 5499 5499 5499 5500 5500 5500 5500 5499 5499 5501 5501 5498 5497 5497 5498 5498 5498 5497 5495 5494 5492 5490 5488 5485 5482 5478 5473 5468 5462 5455 5449 5443 5436 5430 5423 5417 5410 5403 5397 5390 5383 5375 5369 5363 5357
5478 5477 5478 5478 5478 5479 5480 5481 5482 5483 5483 5483 5484 5485 5486 5486 5486 5487 5489 5489 5488 5489 5489 5489 5489 5488 5487 5485 5483 5481 5479 5476 5473 5470 5464 5459 5453 5446 5439 5433 5427 5420 5413 5407 5400 5393 5386 5379 5372 5364 5357 5351 5345 5339
5460 5459 5460 5457 5457 5459 5460 5462 5463 5465 5466 5467 5470 5472 5474 5475 5477 5478 5481 5480 5481 5480 5480 5480 5479 5478 5476 5475 5472 5470 5466 5463 5459 5454 5449 5443 5436 5430 5423 5417 5410 5402 5394 5388 5382 5376 5369 5362 5355 5348 5342 5334 5327 5320
5451 5449 5448 5445 5444 5445 5448 5450 5452 5454 5456 5458 5461 5463 5466 5468 5469 5472 5472 5472 5472 5472 5471 5470 5469 5467 5465 5463 5460 5457 5453 5448 5443 5437 5431 5425 5419 5412 5406 5399 5393 5386 5379 5372 5365 5359 5353 5346 5339 5332 5325 5317 5310 5303
5452 5450 5449 5448 5447 5448 5449 5449 5451 5452 5453 5455 5457 5458 5459 5461 5463 5463 5464 5463 5463 5462 5460 5459 5457 5456 5454 5450 5446 5441 5436 5432 5426 5420 5414 5407 5401 5395 5388 5381 5375 5369 5362 5354 5347 5340 5334 5327 5321 5314 5307 5301 5294 5286
5451 5450 5449 5448 5448 5448 5448 5449 5449 5450 5451 5451 5452 5453 5454 5454 5455 5455 5455 5454 5453 5451 5450 5448 5445 5442 5438 5434 5429 5424 5418 5412 5408 5402 5396 5391 5384 5377 5370 5363 5357 5350 5344 5336 5329 5324 5318 5312 5306 5299 5292 5285 5278 5271
5451 5450 5450 5449 5449 5449 5449 5449 5449 5449 5449 5449 5449 5449 5449 5448 5447 5446 5445 5444 5442 5440 5437 5434 5430 5426 5422 5417 5412 5407 5401 5395 5390 5384 5379 5373 5367 5361 5355 5348 5342 5336 5330 5324 5318 5311 5305 5299 5292 5285 5278 5271 5263 5256
5450 5449 5448 5448 5448 5447 5446 5446 5445 5445 5444 5444 5443 5442 5441 5439 5437 5435 5433 5431 5428 5425 5421 5417 5413 5409 5404 5399 5395 5390 5385 5380 5374 5368 5362 5356 5350 5344 5339 5333 5328 5322 5317 5312 5307 5301 5295 5289 5283 5276 5269 5262 5253 5245
5446 5445 5444 5443 5442 5441 5440 5439 5438 5437 5436 5435 5434 5432 5430 5427 5425 5423 5419 5416 5413 5409 5405 5401 5397 5392 5387 5382 5377 5372 5367 5362 5357 5351 5346 5340 5334 5330 5325 5320 5316 5312 5307 5301 5296 5290 5285 5279 5273 5267 5260 5252 5244 5235
5440 5439 5437 5436 5435 5433 5432 5430 5429 5428 5426 5425 5423 5421 5419 5416 5413 5410 5406 5403 5398 5393 5389 5384 5379 5375 5370 5366 5361 5356 5351 5347 5342 5336 5331 5327 5322 5318 5313 5310 5306 5301 5296 5291 5285 5280 5275 5270 5265 5258 5251 5244 5236 5227